SWR173 LEPA-LIRF

Flight info

Callsign SWR173
Flight time 1h 9m
Altitude 38000
Route MORSS DCT BAVON DCT ORKUM DCT ELSAG DCT ALG DCT ROMPO DCT RUXOP DCT BATOX DCT TINTO L5 VALMA
Aircraft MD11/H-SDE1E2E3FGHIJ2J3J4J5M1RWXY/LB1D1

Departure

Time 2026-05-06 21:57
Airport Palma de Mallorca Airport (LEPA)

Arrival

Time 2026-05-06 23:06
Airport Rome–Fiumicino Leonardo da Vinci International Airport (LIRF)
Time Latitude Longitude Altitude Speed Heading
2026-05-06 21:30 39.54947 2.73771 46 ft 0 kts 239°
2026-05-06 21:47 39.54947 2.73772 46 ft 1 kts 239°
2026-05-06 21:47 39.54959 2.73797 43 ft 4 kts 239°
2026-05-06 21:47 39.54973 2.73826 42 ft 2 kts 239°
2026-05-06 21:48 39.54985 2.73850 44 ft 4 kts 220°
2026-05-06 21:48 39.55003 2.73865 44 ft 4 kts 181°
2026-05-06 21:48 39.55027 2.73859 44 ft 4 kts 151°
2026-05-06 21:48 39.55049 2.73843 42 ft 4 kts 149°
2026-05-06 21:49 39.55068 2.73828 45 ft 1 kts 149°
2026-05-06 21:52 39.55057 2.73837 46 ft 4 kts 149°
2026-05-06 21:52 39.55026 2.73860 46 ft 7 kts 149°
2026-05-06 21:53 39.54978 2.73897 46 ft 6 kts 149°
2026-05-06 21:53 39.54939 2.73928 46 ft 8 kts 149°
2026-05-06 21:53 39.54883 2.73971 46 ft 11 kts 149°
2026-05-06 21:53 39.54816 2.73980 46 ft 10 kts 212°
2026-05-06 21:54 39.54758 2.73951 46 ft 8 kts 171°
2026-05-06 21:54 39.54704 2.73941 46 ft 7 kts 214°
2026-05-06 21:54 39.54670 2.73877 44 ft 10 kts 240°
2026-05-06 21:54 39.54630 2.73790 46 ft 13 kts 239°
2026-05-06 21:55 39.54582 2.73691 46 ft 6 kts 230°
2026-05-06 21:55 39.54557 2.73680 46 ft 3 kts 182°
2026-05-06 21:55 39.54524 2.73696 46 ft 7 kts 153°
2026-05-06 21:55 39.54471 2.73734 44 ft 11 kts 151°
2026-05-06 21:56 39.54436 2.73775 46 ft 4 kts 115°
2026-05-06 21:56 39.54436 2.73818 46 ft 6 kts 80°
2026-05-06 21:56 39.54462 2.73879 46 ft 12 kts 59°
2026-05-06 21:56 39.54590 2.74149 45 ft 79 kts 58°
2026-05-06 21:57 39.55034 2.75084 43 ft 162 kts 58°
2026-05-06 21:57 39.55669 2.76408 754 ft 170 kts 58°
2026-05-06 21:57 39.56283 2.77716 1846 ft 170 kts 60°
2026-05-06 21:57 39.56901 2.79058 2528 ft 188 kts 61°
2026-05-06 21:58 39.57605 2.80604 2942 ft 207 kts 61°
2026-05-06 21:58 39.58335 2.82240 3488 ft 212 kts 61°
2026-05-06 21:58 39.59081 2.83913 3905 ft 215 kts 60°
2026-05-06 21:58 39.59830 2.85586 4270 ft 216 kts 60°
2026-05-06 21:59 39.60586 2.87274 4748 ft 217 kts 60°
2026-05-06 21:59 39.61351 2.88972 5198 ft 218 kts 60°
2026-05-06 21:59 39.62119 2.90681 5656 ft 221 kts 60°
2026-05-06 21:59 39.62939 2.92504 5803 ft 246 kts 60°
2026-05-06 22:00 39.63841 2.94505 5958 ft 268 kts 60°
2026-05-06 22:00 39.64789 2.96609 6581 ft 271 kts 60°
2026-05-06 22:00 39.65748 2.98735 7233 ft 275 kts 60°
2026-05-06 22:00 39.66705 3.00907 7900 ft 279 kts 61°
2026-05-06 22:01 39.67644 3.03089 8578 ft 282 kts 61°
2026-05-06 22:01 39.68605 3.05336 9291 ft 286 kts 61°
2026-05-06 22:01 39.69589 3.07642 10036 ft 290 kts 61°
2026-05-06 22:01 39.70594 3.09995 10260 ft 315 kts 61°
2026-05-06 22:02 39.71705 3.12599 10395 ft 343 kts 61°
2026-05-06 22:02 39.72901 3.15402 10687 ft 362 kts 61°
2026-05-06 22:02 39.74133 3.18292 11452 ft 369 kts 61°
2026-05-06 22:02 39.75386 3.21235 12209 ft 376 kts 61°
2026-05-06 22:03 39.76383 3.23578 12784 ft 381 kts 61°
2026-05-06 22:03 39.77482 3.26741 13461 ft 387 kts 73°
2026-05-06 22:03 39.78106 3.30177 14098 ft 394 kts 79°
2026-05-06 22:03 39.78706 3.33678 14767 ft 399 kts 76°
2026-05-06 22:04 39.79394 3.37205 15439 ft 405 kts 76°
2026-05-06 22:04 39.80107 3.40768 16105 ft 410 kts 76°
2026-05-06 22:04 39.80822 3.44377 16748 ft 415 kts 76°
2026-05-06 22:04 39.81535 3.48044 17393 ft 420 kts 76°
2026-05-06 22:05 39.82245 3.51756 18035 ft 425 kts 76°
2026-05-06 22:05 39.82955 3.55513 18619 ft 430 kts 76°
2026-05-06 22:05 39.83658 3.59263 19121 ft 435 kts 77°
2026-05-06 22:05 39.84377 3.63113 19646 ft 440 kts 77°
2026-05-06 22:06 39.85104 3.67017 20162 ft 445 kts 77°
2026-05-06 22:06 39.85836 3.70956 20676 ft 450 kts 77°
2026-05-06 22:06 39.86577 3.74949 21164 ft 456 kts 77°
2026-05-06 22:06 39.87324 3.78984 21647 ft 461 kts 77°
2026-05-06 22:07 39.88076 3.83054 22138 ft 465 kts 77°
2026-05-06 22:07 39.88835 3.87170 22623 ft 470 kts 77°
2026-05-06 22:07 39.89585 3.91245 23108 ft 475 kts 77°
2026-05-06 22:07 39.90355 3.95437 23591 ft 479 kts 77°
2026-05-06 22:08 39.91132 3.99681 24016 ft 483 kts 77°
2026-05-06 22:08 39.91915 4.03961 24445 ft 487 kts 77°
2026-05-06 22:08 39.92701 4.08272 24894 ft 491 kts 77°
2026-05-06 22:08 39.93482 4.12564 25298 ft 495 kts 78°
2026-05-06 22:09 39.94277 4.16944 25719 ft 499 kts 78°
2026-05-06 22:09 39.95068 4.21367 26134 ft 503 kts 78°
2026-05-06 22:09 39.95858 4.25824 26555 ft 507 kts 78°
2026-05-06 22:09 39.96654 4.30315 26970 ft 510 kts 78°
2026-05-06 22:10 39.97460 4.34838 27360 ft 514 kts 78°
2026-05-06 22:10 39.98274 4.39392 27766 ft 518 kts 78°
2026-05-06 22:10 39.99094 4.43979 28134 ft 521 kts 78°
2026-05-06 22:10 39.99919 4.48596 28520 ft 525 kts 78°
2026-05-06 22:11 40.00748 4.53246 28906 ft 528 kts 78°
2026-05-06 22:11 40.01580 4.57928 29259 ft 532 kts 78°
2026-05-06 22:11 40.02417 4.62647 29633 ft 535 kts 78°
2026-05-06 22:11 40.03250 4.67394 30003 ft 539 kts 78°
2026-05-06 22:12 40.04084 4.72167 30348 ft 541 kts 78°
2026-05-06 22:12 40.04922 4.76971 30741 ft 543 kts 78°
2026-05-06 22:12 40.05761 4.81775 31227 ft 542 kts 78°
2026-05-06 22:12 40.06598 4.86563 31741 ft 541 kts 78°
2026-05-06 22:13 40.07431 4.91341 32249 ft 539 kts 78°
2026-05-06 22:13 40.08257 4.96110 32744 ft 538 kts 78°
2026-05-06 22:13 40.09075 5.00866 33245 ft 536 kts 78°
2026-05-06 22:13 40.09880 5.05557 33714 ft 535 kts 78°
2026-05-06 22:14 40.10693 5.10300 34145 ft 534 kts 78°
2026-05-06 22:14 40.11502 5.15021 34522 ft 533 kts 78°
2026-05-06 22:14 40.12311 5.19752 34888 ft 532 kts 78°
2026-05-06 22:14 40.13116 5.24467 35245 ft 531 kts 78°
2026-05-06 22:15 40.13918 5.29180 35596 ft 530 kts 78°
2026-05-06 22:15 40.14716 5.33880 35930 ft 530 kts 79°
2026-05-06 22:15 40.15512 5.38580 36262 ft 529 kts 79°
2026-05-06 22:15 40.16304 5.43269 36578 ft 529 kts 79°
2026-05-06 22:16 40.17097 5.47978 36706 ft 531 kts 79°
2026-05-06 22:16 40.17888 5.52691 36828 ft 529 kts 79°
2026-05-06 22:16 40.18675 5.57384 36954 ft 528 kts 79°
2026-05-06 22:16 40.19459 5.62076 36981 ft 528 kts 79°
2026-05-06 22:17 40.21020 5.71455 36989 ft 527 kts 79°
2026-05-06 22:17 40.22575 5.80849 36990 ft 529 kts 79°
2026-05-06 22:18 40.24125 5.90264 36990 ft 529 kts 79°
2026-05-06 22:18 40.25665 5.99684 36994 ft 528 kts 79°
2026-05-06 22:19 40.27421 6.08960 36990 ft 529 kts 76°
2026-05-06 22:19 40.29417 6.18238 36992 ft 529 kts 75°
2026-05-06 22:20 40.31432 6.27519 36990 ft 529 kts 75°
2026-05-06 22:20 40.33414 6.36801 36991 ft 529 kts 75°
2026-05-06 22:21 40.35378 6.46100 36993 ft 529 kts 76°
2026-05-06 22:21 40.37330 6.55394 36994 ft 528 kts 76°
2026-05-06 22:22 40.39276 6.64692 36992 ft 528 kts 76°
2026-05-06 22:22 40.41214 6.73994 36993 ft 528 kts 76°
2026-05-06 22:23 40.43132 6.83234 36991 ft 528 kts 76°
2026-05-06 22:23 40.45064 6.92587 36991 ft 527 kts 76°
2026-05-06 22:24 40.46964 7.01825 36987 ft 527 kts 76°
2026-05-06 22:24 40.48846 7.11116 36992 ft 526 kts 76°
2026-05-06 22:25 40.50710 7.20414 36990 ft 526 kts 76°
2026-05-06 22:25 40.52584 7.29703 36993 ft 525 kts 76°
2026-05-06 22:26 40.54458 7.38979 36988 ft 525 kts 76°
2026-05-06 22:26 40.56297 7.48267 37002 ft 524 kts 79°
2026-05-06 22:27 40.57434 7.57656 36998 ft 522 kts 85°
2026-05-06 22:27 40.58171 7.67152 36993 ft 521 kts 86°
2026-05-06 22:28 40.58909 7.76639 36985 ft 521 kts 86°
2026-05-06 22:28 40.59697 7.86106 36983 ft 520 kts 86°
2026-05-06 22:29 40.60496 7.95565 36989 ft 520 kts 86°
2026-05-06 22:29 40.61278 8.05018 36996 ft 519 kts 86°
2026-05-06 22:30 40.62047 8.14461 36991 ft 519 kts 86°
2026-05-06 22:30 40.62975 8.23874 36989 ft 520 kts 78°
2026-05-06 22:31 40.65349 8.32869 36990 ft 522 kts 67°
2026-05-06 22:31 40.68293 8.41547 36994 ft 522 kts 66°
2026-05-06 22:32 40.71194 8.50326 36994 ft 522 kts 68°
2026-05-06 22:32 40.73981 8.59145 36998 ft 521 kts 68°
2026-05-06 22:33 40.76733 8.67997 36998 ft 521 kts 68°
2026-05-06 22:33 40.79478 8.76851 36999 ft 521 kts 68°
2026-05-06 22:34 40.82218 8.85696 37002 ft 521 kts 68°
2026-05-06 22:34 40.84495 8.93064 37005 ft 521 kts 68°
2026-05-06 22:35 40.87230 9.01940 37004 ft 521 kts 68°
2026-05-06 22:35 40.89955 9.10814 36998 ft 521 kts 68°
2026-05-06 22:36 40.92676 9.19707 36993 ft 521 kts 68°
2026-05-06 22:36 40.95376 9.28602 36996 ft 522 kts 69°
2026-05-06 22:37 40.98055 9.37530 36990 ft 521 kts 69°
2026-05-06 22:37 41.00742 9.46443 36993 ft 521 kts 68°
2026-05-06 22:38 41.03431 9.55349 36988 ft 521 kts 68°
2026-05-06 22:38 41.06113 9.64258 36988 ft 520 kts 69°
2026-05-06 22:39 41.08785 9.73164 36982 ft 520 kts 69°
2026-05-06 22:39 41.11413 9.82029 36981 ft 520 kts 69°
2026-05-06 22:40 41.14040 9.90975 36974 ft 520 kts 69°
2026-05-06 22:40 41.16668 9.99921 36979 ft 520 kts 69°
2026-05-06 22:41 41.20634 10.13321 36624 ft 520 kts 69°
2026-05-06 22:41 41.21960 10.17795 36299 ft 519 kts 69°
2026-05-06 22:42 41.23280 10.22256 35832 ft 520 kts 69°
2026-05-06 22:42 41.24601 10.26726 35307 ft 519 kts 69°
2026-05-06 22:42 41.25919 10.31190 34802 ft 520 kts 69°
2026-05-06 22:42 41.27240 10.35671 34297 ft 521 kts 69°
2026-05-06 22:43 41.28547 10.40114 33769 ft 522 kts 69°
2026-05-06 22:43 41.29871 10.44618 33197 ft 524 kts 69°
2026-05-06 22:43 41.31195 10.49134 32576 ft 525 kts 69°
2026-05-06 22:43 41.32519 10.53654 31980 ft 523 kts 69°
2026-05-06 22:44 41.33831 10.58142 31386 ft 519 kts 69°
2026-05-06 22:44 41.35136 10.62615 30805 ft 515 kts 70°
2026-05-06 22:44 41.36425 10.67040 30233 ft 512 kts 70°
2026-05-06 22:44 41.37709 10.71456 29592 ft 509 kts 70°
2026-05-06 22:45 41.38980 10.75834 28994 ft 505 kts 70°
2026-05-06 22:45 41.40239 10.80180 28407 ft 500 kts 70°
2026-05-06 22:45 41.41482 10.84478 27857 ft 495 kts 70°
2026-05-06 22:45 41.42717 10.88752 27295 ft 491 kts 70°
2026-05-06 22:46 41.43934 10.92977 26758 ft 486 kts 70°
2026-05-06 22:46 41.45140 10.97167 26192 ft 481 kts 70°
2026-05-06 22:46 41.46331 11.01311 25666 ft 477 kts 70°
2026-05-06 22:46 41.47509 11.05423 25137 ft 473 kts 70°
2026-05-06 22:47 41.48660 11.09514 24530 ft 469 kts 70°
2026-05-06 22:47 41.49773 11.13504 23903 ft 464 kts 70°
2026-05-06 22:47 41.50906 11.17567 23206 ft 459 kts 70°
2026-05-06 22:47 41.52013 11.21527 22513 ft 453 kts 70°
2026-05-06 22:48 41.53109 11.25439 21877 ft 446 kts 70°
2026-05-06 22:48 41.54173 11.29237 21273 ft 440 kts 70°
2026-05-06 22:48 41.55236 11.33030 20747 ft 433 kts 70°
2026-05-06 22:48 41.56281 11.36762 20469 ft 423 kts 70°
2026-05-06 22:49 41.57290 11.40369 20221 ft 406 kts 70°
2026-05-06 22:49 41.58271 11.43874 19674 ft 400 kts 70°
2026-05-06 22:49 41.59243 11.47334 19068 ft 394 kts 70°
2026-05-06 22:49 41.60199 11.50732 18482 ft 387 kts 70°
2026-05-06 22:50 41.61140 11.54068 17832 ft 380 kts 70°
2026-05-06 22:50 41.62063 11.57343 17226 ft 373 kts 70°
2026-05-06 22:50 41.62970 11.60563 16655 ft 369 kts 70°
2026-05-06 22:50 41.63872 11.63769 16092 ft 366 kts 71°
2026-05-06 22:51 41.64762 11.66938 15546 ft 363 kts 71°
2026-05-06 22:51 41.65635 11.70045 15021 ft 360 kts 71°
2026-05-06 22:51 41.66523 11.73213 14467 ft 358 kts 71°
2026-05-06 22:51 41.67391 11.76312 13951 ft 354 kts 71°
2026-05-06 22:52 41.68239 11.79345 13431 ft 350 kts 71°
2026-05-06 22:52 41.69085 11.82372 13151 ft 345 kts 71°
2026-05-06 22:52 41.69915 11.85345 13051 ft 342 kts 71°
2026-05-06 22:52 41.70744 11.88349 12967 ft 342 kts 71°
2026-05-06 22:53 41.71567 11.91347 12974 ft 343 kts 71°
2026-05-06 22:53 41.72425 11.94328 12966 ft 344 kts 64°
2026-05-06 22:53 41.73829 11.96906 12965 ft 343 kts 42°
2026-05-06 22:53 41.75833 11.98615 12844 ft 343 kts 19°
2026-05-06 22:54 41.78138 11.99210 12620 ft 335 kts 356°
2026-05-06 22:54 41.80398 11.98638 12368 ft 329 kts 338°
2026-05-06 22:54 41.82516 11.97483 12174 ft 328 kts 333°
2026-05-06 22:54 41.84594 11.96221 11902 ft 328 kts 332°
2026-05-06 22:55 41.86638 11.94960 11542 ft 326 kts 332°
2026-05-06 22:55 41.88693 11.93693 11130 ft 324 kts 333°
2026-05-06 22:55 41.90767 11.92546 10760 ft 321 kts 338°
2026-05-06 22:55 41.92908 11.91656 10543 ft 323 kts 343°
2026-05-06 22:56 41.95107 11.90992 10451 ft 324 kts 347°
2026-05-06 22:56 41.97334 11.90492 10330 ft 325 kts 349°
2026-05-06 22:56 41.99574 11.90101 10193 ft 324 kts 351°
2026-05-06 22:56 42.01818 11.89777 10007 ft 325 kts 352°
2026-05-06 22:57 42.04063 11.89493 9796 ft 322 kts 353°
2026-05-06 22:57 42.06306 11.89490 9432 ft 324 kts
2026-05-06 22:57 42.08381 11.90636 8832 ft 325 kts 37°
2026-05-06 22:57 42.09865 11.92866 8270 ft 319 kts 62°
2026-05-06 22:58 42.10645 11.95605 7771 ft 309 kts 77°
2026-05-06 22:58 42.11122 11.98382 7424 ft 298 kts 80°
2026-05-06 22:58 42.11544 12.01032 7290 ft 280 kts 83°
2026-05-06 22:58 42.11563 12.03543 6923 ft 268 kts 106°
2026-05-06 22:59 42.10757 12.05734 6516 ft 258 kts 130°
2026-05-06 22:59 42.09628 12.07522 6167 ft 243 kts 136°
2026-05-06 22:59 42.08508 12.09148 5779 ft 230 kts 136°
2026-05-06 22:59 42.07437 12.10692 5361 ft 221 kts 137°
2026-05-06 23:00 42.06720 12.11617 5125 ft 210 kts 149°
2026-05-06 23:01 42.01170 12.14389 3967 ft 198 kts 165°
2026-05-06 23:01 42.01079 12.14427 3948 ft 198 kts 165°
2026-05-06 23:01 41.99759 12.14986 3694 ft 199 kts 165°
2026-05-06 23:01 41.98438 12.15545 3424 ft 198 kts 165°
2026-05-06 23:02 41.97127 12.16099 3159 ft 197 kts 165°
2026-05-06 23:02 41.95847 12.16639 2894 ft 187 kts 164°
2026-05-06 23:02 41.94649 12.17144 2647 ft 175 kts 164°
2026-05-06 23:02 41.93490 12.17632 2429 ft 173 kts 164°
2026-05-06 23:03 41.92347 12.18112 2214 ft 171 kts 163°
2026-05-06 23:03 41.91215 12.18586 1969 ft 170 kts 163°
2026-05-06 23:03 41.90089 12.19059 1748 ft 169 kts 163°
2026-05-06 23:03 41.89042 12.19498 1494 ft 147 kts 162°
2026-05-06 23:04 41.88064 12.19908 1338 ft 148 kts 162°
2026-05-06 23:04 41.87091 12.20317 1152 ft 144 kts 161°
2026-05-06 23:04 41.86144 12.20713 971 ft 143 kts 161°
2026-05-06 23:04 41.85197 12.21112 788 ft 142 kts 162°
2026-05-06 23:05 41.84247 12.21508 622 ft 144 kts 160°
2026-05-06 23:05 41.83288 12.21910 407 ft 144 kts 160°
2026-05-06 23:05 41.82326 12.22314 216 ft 145 kts 160°
2026-05-06 23:05 41.81352 12.22726 61 ft 146 kts 161°
2026-05-06 23:06 41.80517 12.23077 26 ft 90 kts 163°
2026-05-06 23:06 41.80126 12.23235 27 ft 42 kts 163°
2026-05-06 23:06 41.79972 12.23299 27 ft 14 kts 162°
2026-05-06 23:06 41.79894 12.23331 30 ft 11 kts 162°
2026-05-06 23:07 41.79832 12.23358 29 ft 8 kts 162°
2026-05-06 23:07 41.79785 12.23383 29 ft 7 kts 150°
2026-05-06 23:07 41.79758 12.23433 27 ft 5 kts 105°
2026-05-06 23:07 41.79761 12.23461 26 ft 3 kts 80°
2026-05-06 23:08 41.79769 12.23496 28 ft 5 kts 70°
2026-05-06 23:08 41.79790 12.23573 26 ft 13 kts 69°
2026-05-06 23:08 41.79826 12.23703 26 ft 15 kts 72°
2026-05-06 23:08 41.79858 12.23829 26 ft 13 kts 70°
2026-05-06 23:09 41.79887 12.23937 26 ft 12 kts 70°
2026-05-06 23:09 41.79914 12.24051 24 ft 13 kts 79°
2026-05-06 23:09 41.79920 12.24174 22 ft 13 kts 82°
2026-05-06 23:09 41.79946 12.24293 22 ft 11 kts 70°
2026-05-06 23:10 41.79930 12.24382 21 ft 9 kts 139°
2026-05-06 23:10 41.79875 12.24409 23 ft 8 kts 161°
2026-05-06 23:10 41.79821 12.24434 27 ft 8 kts 161°
2026-05-06 23:10 41.79768 12.24469 26 ft 8 kts 137°
2026-05-06 23:11 41.79756 12.24508 27 ft 2 kts 97°
2026-05-06 23:11 41.79756 12.24528 27 ft 2 kts 93°
2026-05-06 23:11 41.79755 12.24547 28 ft 2 kts 92°
2026-05-06 23:11 41.79754 12.24567 28 ft 2 kts 92°
2026-05-06 23:12 41.79754 12.24583 28 ft 0 kts 91°
2026-05-06 23:12 41.79754 12.24586 28 ft 0 kts 91°